Grand Marais, MN

8:38 AM CST on November 21, 2019 (GMT -0600)
Grand Marais

Weather History for KGNA - September, 2019

Change the Weather History Date:

Sunday, September 29, 2019

  Actual Average (KCKC) Record (KCKC)
Temperature  
Mean Temperature 50 °F -  
Max Temperature 53 °F 52 °F 71 °F (2000)
Min Temperature 46 °F 35 °F 23 °F (2003)
Degree Days  
Heating Degree Days 16    
Moisture  
Dew Point 42 °F    
Average Humidity 75    
Maximum Humidity 93    
Minimum Humidity 66    
Precipitation  
Precipitation 0.04 in - - ()
Sea Level Pressure  
Sea Level Pressure 30.33 in    
Wind  
Wind Speed 10 mph (ENE)    
Max Wind Speed 28 mph    
Max Gust Speed 38 mph    
Averages and records for this station are not official NWS values.
T = Trace of Precipitation, MM = Missing Value Source: NWS Daily Summary

Daily Weather History Graph

Daily Weather History Graph

Search for Another Location

Airport or City:

Astronomy

Sep. 29, 2019 Rise Set
Actual Time 6:57 AM CDT 6:45 PM CDT
Civil Twilight 6:26 AM CDT 7:15 PM CDT
Nautical Twilight 5:50 AM CDT 7:51 PM CDT
Astronomical Twilight 5:13 AM CDT 8:28 PM CDT
Moon 7:48 AM CDT (9/29) 7:42 PM CDT (9/29)
Length of Visible Light 12h 49m
Length of Day
11h 47m
New Moon, 1% of the Moon is Illuminated
Sep 29
New Moon
Oct 5
First Quarter
Oct 13
Full
Oct 21
Last Quarter
Oct 27
New

Hourly Weather History & Observations

Time (CDT) Temp. Windchill Dew Point Humidity Pressure Visibility Wind Dir Wind Speed Gust Speed Precip Events Conditions
12:56 AM 46.0 °F 44.8 °F 39.9 °F 79% 30.38 in - North 3.5 mph - N/A   Unknown
1:00 AM - - - N/A% - - North - - N/A   Unknown
1:56 AM 46.0 °F - 39.0 °F 76% 30.39 in - Calm Calm - N/A   Unknown
2:56 AM 48.0 °F - 39.0 °F 71% 30.39 in - NNE 4.6 mph - N/A   Unknown
3:56 AM 48.0 °F - 37.9 °F 68% 30.40 in - NNE 3.5 mph - N/A   Unknown
4:56 AM 48.9 °F - 39.0 °F 69% 30.40 in - NE 5.8 mph - N/A   Unknown
5:56 AM 48.9 °F - 39.9 °F 71% 30.40 in - NNE 5.8 mph - N/A   Unknown
6:56 AM 48.9 °F - 39.9 °F 71% 30.40 in - NE 8.1 mph - N/A   Unknown
7:56 AM 50.0 °F - 41.0 °F 71% 30.41 in - NE 11.5 mph 16.1 mph N/A   Unknown
8:56 AM 50.0 °F - 43.0 °F 77% 30.40 in - NE 11.5 mph - N/A   Unknown
9:56 AM 53.1 °F - 42.1 °F 66% 30.41 in - East 13.8 mph 20.7 mph N/A   Unknown
10:56 AM 53.1 °F - 44.1 °F 71% 30.38 in - East 11.5 mph 23.0 mph N/A   Unknown
11:56 AM 53.1 °F - 43.0 °F 69% 30.37 in - East 15.0 mph 25.3 mph N/A   Unknown
12:56 PM 52.0 °F - 43.0 °F 71% 30.35 in - East 21.9 mph 29.9 mph N/A   Unknown
1:56 PM 53.1 °F - 42.1 °F 66% 30.34 in - East 19.6 mph 27.6 mph N/A   Unknown
2:56 PM 52.0 °F - 42.1 °F 69% 30.32 in - ENE 19.6 mph 31.1 mph N/A   Unknown
3:56 PM 52.0 °F - 42.1 °F 69% 30.30 in - ENE 18.4 mph 31.1 mph N/A   Unknown
4:56 PM 52.0 °F - 42.1 °F 69% 30.27 in - ENE 19.6 mph 33.4 mph N/A   Unknown
5:56 PM 52.0 °F - 42.1 °F 69% 30.27 in - ENE 21.9 mph 35.7 mph N/A   Unknown
6:56 PM 51.1 °F - 43.0 °F 74% 30.25 in - East 27.6 mph 36.8 mph N/A   Unknown
7:56 PM 51.1 °F - 45.0 °F 80% 30.24 in - ENE 27.6 mph 36.8 mph N/A   Unknown
8:56 PM 50.0 °F - 46.0 °F 86% 30.24 in - ENE 20.7 mph 38.0 mph 0.01 in   Unknown
9:56 PM 48.9 °F - 46.9 °F 93% 30.21 in - NE 13.8 mph 26.5 mph 0.02 in   Unknown
10:56 PM 48.9 °F - 46.9 °F 93% 30.18 in - NE 12.7 mph 26.5 mph 0.01 in   Unknown
11:56 PM 50.0 °F - 48.0 °F 93% 30.13 in - ENE 11.5 mph 24.2 mph N/A   Unknown